DW6860 Weather Reports


Display with metric or nautical units.
time (UTC)temp
F
wind
direction
speed
MPH
gust
MPH
rain 1hr
in
rain 24hr
in
rain mn
in
humidity
%
barometer
mb
20260503004642 58 175 2.0 6.0 0.00 0.44 0.00 92 1011.4
20260503004611 58 215 2.0 6.0 0.00 0.44 0.00 92 1011.3
20260503004536 58 144 1.0 3.0 0.00 0.44 0.00 92 1011.3
20260503004517 58 150 1.0 3.0 0.00 0.44 0.00 92 1011.4
20260503004015 58 162 2.0 6.0 0.00 0.44 0.00 92 1011.4
20260503003515 58 170 2.0 6.0 0.00 0.44 0.00 92 1011.4
20260503003021 58 167 2.0 5.0 0.00 0.44 0.00 92 1011.5
20260503003015 58 172 2.0 5.0 0.00 0.44 0.00 92 1011.5
20260503002514 58 178 2.0 6.0 0.00 0.44 0.00 92 1011.5
20260503002130 59 115 1.0 4.0 0.00 0.44 0.00 92 1011.5
20260503002022 58 181 1.0 6.0 0.00 0.44 0.00 92 1011.4
20260503002016 59 151 1.0 6.0 0.00 0.44 0.00 92 1011.5
20260503001536 59 142 1.0 4.0 0.00 0.44 0.00 92 1011.6
20260503001440 59 164 0.0 2.0 0.00 0.44 0.00 92 1011.8
20260503001436 59 164 0.0 2.0 0.00 0.44 0.00 92 1011.8
20260503001429 59 181 0.0 2.0 0.00 0.44 0.00 92 1012.0
20260503001144 59 164 0.0 4.0 0.00 0.44 0.00 92 1011.7
20260503001036 59 158 0.0 4.0 0.00 0.44 0.00 92 1011.6
20260503000514 59 159 0.0 2.0 0.00 0.44 0.00 92 1011.7
20260503000015 59 179 0.0 2.0 0.00 0.44 0.00 92 1011.9
20260502235535 59 192 0.0 2.0 0.00 0.44 0.00 92 1012.1
20260502235014 59 204 0.0 2.0 0.00 0.44 0.00 92 1012.2
20260502235008 59 204 0.0 2.0 0.00 0.44 0.00 92 1012.2
20260502234650 59 204 0.0 2.0 0.00 0.44 0.00 92 1012.3
20260502234531 59 204 1.0 2.0 0.00 0.44 0.00 92 1012.3
20260502234514 59 209 1.0 2.0 0.00 0.44 0.00 92 1012.3
20260502234036 59 220 0.0 2.0 0.00 0.44 0.00 92 1012.3
20260502233514 59 243 1.0 3.0 0.00 0.44 0.00 92 1012.4
20260502233503 59 242 1.0 3.0 0.00 0.44 0.00 92 1012.4
20260502233017 59 242 1.0 3.0 0.00 0.44 0.00 92 1012.8
20260502233014 59 225 1.0 3.0 0.00 0.44 0.00 92 1012.8
20260502232514 59 138 0.0 3.0 0.00 0.44 0.00 92 1012.7
20260502232455 59 163 0.0 2.0 0.00 0.44 0.00 92 1012.6
20260502232100 59 113 0.0 2.0 0.00 0.44 0.00 91 1012.4
20260502232015 59 95 0.0 2.0 0.00 0.44 0.00 91 1012.3
20260502231959 59 113 0.0 2.0 0.00 0.44 0.00 91 1012.2
20260502231514 59 65 0.0 2.0 0.00 0.44 0.00 91 1012.4
20260502231015 59 47 0.0 2.0 0.00 0.44 0.00 91 1012.4
20260502230950 59 61 0.0 2.0 0.00 0.44 0.00 91 1012.3
20260502230514 59 29 1.0 4.0 0.00 0.44 0.00 91 1012.2
20260502230445 59 32 1.0 4.0 0.00 0.44 0.00 91 1012.2
20260502230248 59 32 1.0 6.0 0.00 0.44 0.00 91 1012.3
20260502230027 59 32 1.0 4.0 0.00 0.44 0.00 91 1012.2
20260502230014 59 31 1.0 4.0 0.00 0.44 0.00 91 1012.3
20260502225514 59 30 1.0 5.0 0.00 0.44 0.00 91 1012.4
20260502225014 59 29 2.0 6.0 0.00 0.44 0.00 91 1012.3
20260502224948 59 29 2.0 6.0 0.00 0.44 0.00 91 1012.4
20260502224559 59 40 2.0 4.0 0.01 0.44 0.00 90 1012.5
20260502224535 59 29 3.0 6.0 0.00 0.44 0.00 91 1012.3
20260502224444 59 15 2.0 5.0 0.00 0.44 0.00 91 1012.4
20260502224132 59 42 2.0 4.0 0.00 0.44 0.00 91 1012.4
20260502224015 59 27 2.0 5.0 0.00 0.44 0.00 91 1012.4
20260502223658 59 19 2.0 6.0 0.01 0.44 0.00 90 1012.5
20260502223632 59 53 2.0 6.0 0.02 0.44 0.00 90 1012.6
20260502223526 59 29 2.0 4.0 0.00 0.44 0.00 90 1012.4
20260502223514 59 26 2.0 4.0 0.00 0.44 0.00 90 1012.5
20260502223036 59 30 2.0 4.0 0.01 0.44 0.00 90 1012.5
20260502222535 59 39 2.0 6.0 0.01 0.44 0.00 90 1012.5
20260502222015 59 42 2.0 6.0 0.02 0.44 0.00 90 1012.5
20260502221702 59 38 1.0 5.0 0.03 0.44 0.00 90 1012.8
20260502221515 59 53 1.0 4.0 0.02 0.44 0.00 90 1012.7
20260502221501 59 21 1.0 4.0 0.02 0.44 0.00 90 1012.7
20260502221016 59 79 1.0 4.0 0.03 0.44 0.00 90 1012.8
20260502220855 59 53 1.0 5.0 0.12 0.44 0.00 89 1012.9
20260502220826 60 96 1.0 4.0 0.20 0.44 0.00 89 1012.9
20260502220556 59 93 1.0 5.0 0.04 0.44 0.00 89 1012.9
20260502220514 59 60 1.0 5.0 0.04 0.44 0.00 90 1013.0
20260502220106 59 47 1.0 5.0 0.10 0.44 0.00 89 1012.9
20260502215514 60 63 1.0 4.0 0.19 0.44 0.44 89 1012.9
20260502215015 60 61 1.0 5.0 0.33 0.44 0.44 89 1013.0
20260502214938 60 121 1.0 5.0 0.35 0.44 0.00 89 1013.0
20260502214514 60 59 1.0 5.0 0.43 0.44 0.44 88 1013.0
20260502214429 60 86 1.0 5.0 0.44 0.44 0.00 88 1013.0
20260502214017 60 74 0.0 3.0 0.44 0.44 0.44 88 1013.1
20260502213930 60 53 0.0 3.0 0.44 0.44 0.00 88 1013.0
20260502213514 60 35 2.0 5.0 0.44 0.44 0.44 88 1013.2
20260502213429 60 111 2.0 5.0 0.44 0.44 0.00 87 1013.1
20260502213014 60 26 3.0 8.0 0.43 0.43 0.43 87 1013.1
20260502212951 60 51 3.0 8.0 0.43 0.43 0.00 87 1013.0
20260502212514 60 27 3.0 8.0 0.43 0.43 0.43 87 1012.9
20260502212443 60 38 3.0 8.0 0.43 0.43 0.00 87 1012.9
20260502212014 60 27 3.0 6.0 0.43 0.43 0.43 86 1013.1
20260502211943 60 38 3.0 6.0 0.43 0.43 0.00 86 1013.0
20260502211515 60 15 2.0 6.0 0.43 0.43 0.43 85 1013.3
20260502211417 60 24 2.0 6.0 0.43 0.43 0.00 85 1013.3
20260502211014 61 332 2.0 9.0 0.41 0.41 0.41 85 1013.5
20260502210916 61 15 2.0 9.0 0.41 0.41 0.00 84 1013.6
20260502210514 61 295 3.0 10.0 0.40 0.40 0.40 83 1013.9
20260502210428 61 304 3.0 10.0 0.39 0.39 0.00 83 1014.0
20260502210016 61 269 5.0 10.0 0.34 0.34 0.35 82 1014.2
20260502205904 61 192 5.0 13.0 0.32 0.32 0.00 81 1014.2
20260502205514 62 266 6.0 15.0 0.25 0.25 0.25 80 1014.3
20260502205406 62 225 6.0 15.0 0.23 0.23 0.00 79 1014.3
20260502205341 68 316 1.0 10.0 0.00 0.00 0.00 67 1013.5
20260502205015 64 251 7.0 22.0 0.11 0.11 0.11 76 1014.1
20260502204920 64 245 7.0 22.0 0.08 0.08 0.00 75 1013.9
20260502204709 68 316 1.0 10.0 0.00 0.00 0.00 67 1013.5
20260502204516 66 233 6.0 22.0 0.01 0.01 0.01 70 1013.4
20260502204439 66 141 5.0 22.0 0.00 0.00 0.00 69 1013.5
20260502204016 68 225 2.0 11.0 0.00 0.00 0.00 67 1013.4
20260502203514 68 62 1.0 3.0 0.00 0.00 0.00 66 1012.9
20260502203402 68 37 1.0 3.0 0.00 0.00 0.00 66 1012.6
20260502203015 68 53 2.0 4.0 0.00 0.00 0.00 66 1012.5
20260502202903 68 80 1.0 4.0 0.00 0.00 0.00 65 1012.5
20260502202643 68 54 2.0 5.0 0.00 0.00 0.00 64 1012.5
20260502202515 68 41 2.0 5.0 0.00 0.00 0.00 65 1012.5
20260502202037 68 41 2.0 5.0 0.00 0.00 0.00 64 1012.4
20260502201933 68 42 2.0 5.0 0.00 0.00 0.00 64 1012.4
20260502201515 68 42 1.0 5.0 0.00 0.00 0.00 63 1012.6
20260502201440 68 21 1.0 5.0 0.00 0.00 0.00 63 1012.4
20260502201015 68 42 1.0 4.0 0.00 0.00 0.00 63 1012.4
20260502200907 68 52 1.0 4.0 0.00 0.00 0.00 63 1012.5
20260502200552 69 32 1.0 4.0 0.00 0.00 0.00 62 1012.5
20260502200536 68 33 1.0 4.0 0.00 0.00 0.00 63 1012.5
20260502200406 68 52 2.0 5.0 0.00 0.00 0.00 63 1012.5
20260502200331 69 32 1.0 4.0 0.00 0.00 0.00 62 1012.5
20260502200015 68 35 2.0 5.0 0.00 0.00 0.00 63 1012.5
20260502195938 68 69 2.0 5.0 0.00 0.00 0.00 63 1012.5
20260502195514 69 50 2.0 5.0 0.00 0.00 0.00 62 1012.5
20260502195014 69 68 1.0 3.0 0.00 0.00 0.00 62 1012.6
20260502194856 69 82 1.0 3.0 0.00 0.00 0.00 62 1012.6
20260502194515 69 78 1.0 2.0 0.00 0.00 0.00 62 1012.7
20260502194403 69 81 1.0 2.0 0.00 0.00 0.00 62 1012.8
20260502194014 69 61 1.0 2.0 0.00 0.00 0.00 62 1012.8
20260502193855 69 94 1.0 3.0 0.00 0.00 0.00 62 1012.8
20260502193515 69 38 1.0 3.0 0.00 0.00 0.00 61 1012.8
20260502193359 69 38 1.0 3.0 0.00 0.00 0.00 61 1012.8
20260502193015 70 34 1.0 3.0 0.00 0.00 0.00 61 1012.8
20260502192938 70 29 1.0 3.0 0.00 0.00 0.00 61 1013.0
20260502192910 69 38 1.0 3.0 0.00 0.00 0.00 61 1012.7
20260502192514 70 30 1.0 3.0 0.00 0.00 0.00 61 1012.9
20260502192014 70 30 2.0 3.0 0.00 0.00 0.00 61 1013.0
20260502191912 70 11 2.0 4.0 0.00 0.00 0.00 61 1012.9
20260502191847 70 29 1.0 3.0 0.00 0.00 0.00 61 1013.0
20260502191515 70 43 1.0 3.0 0.00 0.00 0.00 61 1013.0
20260502191035 70 41 2.0 4.0 0.00 0.00 0.00 60 1012.9
20260502190833 70 48 2.0 5.0 0.00 0.00 0.00 61 1012.9
20260502190514 70 25 2.0 7.0 0.00 0.00 0.00 60 1012.9
20260502190331 70 33 2.0 7.0 0.00 0.00 0.00 60 1012.8
20260502190015 70 24 3.0 7.0 0.00 0.00 0.00 60 1012.9
20260502185835 71 28 3.0 7.0 0.00 0.00 0.00 60 1012.9
20260502185513 71 26 2.0 5.0 0.00 0.00 0.00 60 1012.9
20260502185335 71 21 2.0 5.0 0.00 0.00 0.00 60 1013.0
20260502185044 71 38 1.0 4.0 0.00 0.00 0.00 60 1013.0
20260502185035 71 30 2.0 4.0 0.00 0.00 0.00 60 1013.0
20260502184902 71 34 2.0 4.0 0.00 0.00 0.00 60 1013.0
20260502184514 71 28 2.0 4.0 0.00 0.00 0.00 60 1012.9
20260502184035 71 28 2.0 4.0 0.00 0.00 0.00 60 1013.0
20260502183834 71 20 2.0 6.0 0.00 0.00 0.00 60 1013.0
20260502183515 72 31 2.0 6.0 0.00 0.00 0.00 60 1013.1
20260502183330 71 43 3.0 8.0 0.00 0.00 0.00 60 1013.0
20260502183014 72 30 3.0 8.0 0.00 0.00 0.00 60 1013.0
20260502182829 72 31 3.0 8.0 0.00 0.00 0.00 60 1012.8
20260502182647 72 57 3.0 8.0 0.00 0.00 0.00 59 1012.9
20260502182514 72 27 3.0 8.0 0.00 0.00 0.00 59 1013.0
20260502182404 72 18 3.0 8.0 0.00 0.00 0.00 59 1012.9
20260502182015 72 20 3.0 8.0 0.00 0.00 0.00 59 1013.0
20260502181607 72 44 3.0 8.0 0.00 0.00 0.00 59 1012.9
20260502181535 72 17 3.0 8.0 0.00 0.00 0.00 59 1013.0
20260502181035 72 17 3.0 7.0 0.00 0.00 0.00 59 1013.0
20260502180825 72 0 3.0 5.0 0.00 0.00 0.00 59 1013.0
20260502180659 74 350 3.0 5.0 0.00 0.00 0.00 60 1013.0
20260502180636 73 5 4.0 7.0 0.00 0.00 0.00 59 1012.9
20260502180514 72 16 3.0 6.0 0.00 0.00 0.00 59 1013.0
20260502180430 73 17 3.0 7.0 0.00 0.00 0.00 59 1012.9
20260502170514 76 8 3.0 6.0 0.00 0.00 0.00 54 1013.1
20260502170318 76 17 3.0 6.0 0.00 0.00 0.00 53 1013.2
20260502164014 77 2 2.0 5.0 0.00 0.00 0.00 51 1013.3
20260502163812 77 297 3.0 5.0 0.00 0.00 0.00 51 1013.4
20260502163513 77 350 3.0 6.0 0.00 0.00 0.00 51 1013.4
20260502163308 77 18 2.0 6.0 0.00 0.00 0.00 51 1013.4
20260502163042 77 317 2.0 4.0 0.00 0.00 0.00 47 1013.6
20260502163035 77 346 2.0 6.0 0.00 0.00 0.00 50 1013.5
20260502162953 77 32 2.0 4.0 0.00 0.00 0.00 47 1013.6
20260502162848 77 337 2.0 6.0 0.00 0.00 0.00 49 1013.4
20260502162514 77 347 2.0 4.0 0.00 0.00 0.00 47 1013.6
20260502162035 77 351 2.0 4.0 0.00 0.00 0.00 47 1013.6
20260502161515 77 332 2.0 4.0 0.00 0.00 0.00 48 1013.7
20260502161303 76 323 2.0 4.0 0.00 0.00 0.00 48 1013.6
20260502161013 76 205 2.0 4.0 0.00 0.00 0.00 48 1013.6
20260502160802 76 200 3.0 6.0 0.00 0.00 0.00 48 1013.6
20260502160513 76 209 3.0 6.0 0.00 0.00 0.00 48 1013.7
20260502160302 76 201 2.0 6.0 0.00 0.00 0.00 47 1013.7
20260502152252 78 292 3.0 9.0 0.00 0.00 0.00 47 1014.1
20260502152036 77 226 3.0 9.0 0.00 0.00 0.00 48 1014.2
20260502151757 78 227 3.0 9.0 0.00 0.00 0.00 47 1014.2
20260502151513 79 264 2.0 9.0 0.00 0.00 0.00 46 1014.3
20260502151255 78 250 1.0 6.0 0.00 0.00 0.00 47 1014.2
20260502151035 78 282 2.0 6.0 0.00 0.00 0.00 47 1014.3
20260502150752 78 350 2.0 8.0 0.00 0.00 0.00 48 1014.4
20260502150514 78 226 3.0 8.0 0.00 0.00 0.00 47 1014.5
20260502150246 77 221 3.0 8.0 0.00 0.00 0.00 48 1014.4
20260502130714 75 231 3.0 8.0 0.00 0.00 0.00 54 1016.1
20260502130513 74 213 3.0 7.0 0.00 0.00 0.00 54 1016.2
20260502130456 74 245 4.0 8.0 0.00 0.00 0.00 55 1016.1
20260502123719 74 212 3.0 8.0 0.00 0.00 0.00 56 1016.5
20260502123513 73 220 3.0 8.0 0.00 0.00 0.00 56 1016.5
20260502123209 74 246 3.0 8.0 0.00 0.00 0.00 56 1016.5
20260502123014 74 227 3.0 8.0 0.00 0.00 0.00 55 1016.5
20260502122724 74 255 3.0 8.0 0.00 0.00 0.00 55 1016.6
20260502122515 74 226 3.0 7.0 0.00 0.00 0.00 55 1016.6
20260502122216 74 257 3.0 7.0 0.00 0.00 0.00 56 1016.6
20260502122014 74 221 3.0 9.0 0.00 0.00 0.00 56 1016.7
20260502121714 74 294 3.0 9.0 0.00 0.00 0.00 56 1016.7
20260502121514 73 227 3.0 9.0 0.00 0.00 0.00 56 1016.8
20260502121211 73 184 3.0 9.0 0.00 0.00 0.00 56 1016.8
20260502121014 73 225 3.0 8.0 0.00 0.00 0.00 56 1016.8
20260502120720 73 257 3.0 8.0 0.00 0.00 0.00 56 1016.8
20260502120513 73 225 3.0 8.0 0.00 0.00 0.00 56 1016.9
20260502120202 74 210 4.0 11.0 0.00 0.00 0.00 55 1016.8
20260502115840 74 206 4.0 11.0 0.00 0.00 0.00 55 1016.8
20260502115728 74 173 5.0 11.0 0.00 0.00 0.00 54 1016.8
20260502115513 74 215 5.0 11.0 0.00 0.00 0.00 54 1016.8
20260502115014 74 217 4.0 10.0 0.00 0.00 0.00 55 1016.9
20260502114728 73 241 4.0 9.0 0.00 0.00 0.00 57 1016.9
20260502114643 73 217 3.0 8.0 0.00 0.00 0.00 56 1017.0
20260502114535 73 213 4.0 8.0 0.00 0.00 0.00 57 1017.0
20260502114349 72 234 3.0 8.0 0.00 0.00 0.00 56 1016.9
20260502114035 72 217 3.0 8.0 0.00 0.00 0.00 56 1016.9
20260502113535 73 246 3.0 8.0 0.00 0.00 0.00 56 1017.0
20260502113230 73 265 4.0 9.0 0.00 0.00 0.00 55 1017.1
20260502113207 73 197 3.0 9.0 0.00 0.00 0.00 56 1017.0
20260502113036 73 263 3.0 9.0 0.00 0.00 0.00 56 1017.0
20260502112748 73 266 3.0 9.0 0.00 0.00 0.00 56 1017.0
20260502112513 72 239 3.0 9.0 0.00 0.00 0.00 56 1017.1
20260502112216 73 279 3.0 10.0 0.00 0.00 0.00 56 1017.1
20260502112014 73 226 3.0 9.0 0.00 0.00 0.00 56 1017.1
20260502111656 73 186 3.0 10.0 0.00 0.00 0.00 56 1017.1
20260502111513 73 217 4.0 10.0 0.00 0.00 0.00 56 1017.1
20260502111302 73 217 4.0 10.0 0.00 0.00 0.00 56 1017.1
20260502111014 73 218 4.0 10.0 0.00 0.00 0.00 56 1017.2
20260502110513 73 208 4.0 9.0 0.00 0.00 0.00 56 1017.2
20260502110312 72 221 4.0 11.0 0.00 0.00 0.00 57 1017.3
20260502110223 73 240 5.0 11.0 0.00 0.00 0.00 56 1017.3
20260502110014 73 214 5.0 11.0 0.00 0.00 0.00 57 1017.3
20260502105534 72 220 4.0 11.0 0.00 0.00 0.00 56 1017.3
20260502105157 72 172 3.0 9.0 0.00 0.00 0.00 57 1017.2
20260502105014 72 219 3.0 9.0 0.00 0.00 0.00 57 1017.2
20260502104746 72 186 4.0 13.0 0.00 0.00 0.00 57 1017.4
20260502104659 72 187 3.0 10.0 0.00 0.00 0.00 57 1017.2
20260502104652 72 303 3.0 8.0 0.00 0.00 0.00 57 1017.3
20260502104515 72 248 3.0 10.0 0.00 0.00 0.00 57 1017.2
20260502104340 71 202 4.0 10.0 0.00 0.00 0.00 57 1017.2
20260502104013 72 238 4.0 10.0 0.00 0.00 0.00 58 1017.2
20260502103513 72 216 4.0 11.0 0.00 0.00 0.00 56 1017.3
20260502103247 73 199 4.0 13.0 0.00 0.00 0.00 56 1017.3
20260502103014 72 214 4.0 13.0 0.00 0.00 0.00 56 1017.4
20260502102513 72 214 4.0 13.0 0.00 0.00 0.00 57 1017.4
20260502102158 71 196 4.0 9.0 0.00 0.00 0.00 57 1017.4
20260502102015 71 212 4.0 9.0 0.00 0.00 0.00 57 1017.6
20260502101658 71 233 4.0 9.0 0.00 0.00 0.00 58 1017.6
20260502101514 71 219 4.0 9.0 0.00 0.00 0.00 58 1017.6
20260502101300 71 211 4.0 10.0 0.00 0.00 0.00 59 1017.6
20260502101154 70 242 3.0 10.0 0.00 0.00 0.00 59 1017.8
20260502101148 71 249 4.0 9.0 0.00 0.00 0.00 58 1017.6
20260502101013 70 224 4.0 9.0 0.00 0.00 0.00 58 1017.7
20260502100821 71 194 4.0 9.0 0.00 0.00 0.00 58 1017.6
20260502100535 71 219 4.0 9.0 0.00 0.00 0.00 58 1017.6
20260502091140 68 169 3.0 8.0 0.00 0.00 0.00 58 1018.0
20260502091015 68 196 4.0 8.0 0.00 0.00 0.00 58 1018.0
20260502090648 68 198 4.0 8.0 0.00 0.00 0.00 58 1017.9
20260502090513 68 206 3.0 8.0 0.00 0.00 0.00 58 1018.0
20260502090151 68 216 3.0 7.0 0.00 0.00 0.00 58 1017.9
20260502071513 59 168 1.0 4.0 0.00 0.00 0.00 60 1017.9
20260502071300 58 180 1.0 4.0 0.00 0.00 0.00 61 1017.9
20260502071153 59 132 1.0 3.0 0.00 0.00 0.00 61 1017.8
20260502071014 59 180 1.0 3.0 0.00 0.00 0.00 61 1017.9
20260502070513 58 180 1.0 4.0 0.00 0.00 0.00 61 1018.0
20260502070128 58 180 1.0 4.0 0.00 0.00 0.00 61 1017.9
20260502070035 58 180 1.0 4.0 0.00 0.00 0.00 61 1018.0
20260502065628 58 180 1.0 3.0 0.00 0.00 0.00 61 1018.0
20260502065513 58 191 1.0 3.0 0.00 0.00 0.00 61 1018.0
20260502065123 58 180 2.0 3.0 0.00 0.00 0.00 60 1018.0
20260502065014 58 204 1.0 3.0 0.00 0.00 0.00 60 1018.0
20260502064953 57 176 1.0 3.0 0.00 0.00 0.00 60 1017.9
20260502064738 57 212 1.0 3.0 0.00 0.00 0.00 60 1017.9
20260502064515 57 215 1.0 3.0 0.00 0.00 0.00 61 1018.0
20260502064208 57 185 1.0 3.0 0.00 0.00 0.00 60 1018.0
20260502064013 57 210 1.0 3.0 0.00 0.00 0.00 60 1018.0
20260502063513 57 209 1.0 3.0 0.00 0.00 0.00 60 1018.0
20260502063334 57 215 1.0 3.0 0.00 0.00 0.00 59 1017.9
20260502063014 57 215 1.0 3.0 0.00 0.00 0.00 59 1017.9
20260502062608 57 215 1.0 2.0 0.00 0.00 0.00 59 1017.9
20260502062513 57 219 1.0 2.0 0.00 0.00 0.00 59 1018.0
20260502062102 57 215 0.0 2.0 0.00 0.00 0.00 58 1017.9
20260502062013 57 248 0.0 2.0 0.00 0.00 0.00 58 1017.9
20260502061620 57 217 0.0 2.0 0.00 0.00 0.00 58 1017.8
20260502061534 57 355 0.0 2.0 0.00 0.00 0.00 58 1017.9
20260502061108 57 355 0.0 2.0 0.00 0.00 0.00 57 1017.8
20260502061035 57 325 0.0 2.0 0.00 0.00 0.00 57 1017.9
20260502060614 57 355 1.0 3.0 0.00 0.00 0.00 57 1017.7
20260502060512 57 259 1.0 3.0 0.00 0.00 0.00 57 1017.8
20260502060014 57 223 2.0 6.0 0.00 0.00 0.00 57 1018.0
20260502055605 57 196 2.0 6.0 0.00 0.00 0.00 57 1018.1
20260502055513 57 219 2.0 6.0 0.00 0.00 0.00 57 1018.1
20260502055103 57 217 1.0 5.0 0.00 0.00 0.00 57 1018.0
20260502055014 56 214 1.0 5.0 0.00 0.00 0.00 57 1018.0
20260502054603 56 205 2.0 5.0 0.00 0.00 0.00 57 1018.0
20260502054514 56 213 2.0 4.0 0.00 0.00 0.00 57 1018.1
20260502054251 56 190 2.0 5.0 0.00 0.00 0.00 58 1018.0
20260502054243 56 220 1.0 3.0 0.00 0.00 0.00 57 1017.9
20260502054144 56 201 2.0 5.0 0.00 0.00 0.00 58 1018.0
20260502054013 56 212 2.0 5.0 0.00 0.00 0.00 58 1018.1
20260502053513 56 206 2.0 5.0 0.00 0.00 0.00 58 1018.1
20260502053013 56 198 1.0 3.0 0.00 0.00 0.00 57 1017.9
20260502052558 56 196 1.0 3.0 0.00 0.00 0.00 57 1017.8
20260502052534 56 195 1.0 3.0 0.00 0.00 0.00 57 1017.8
20260502052104 56 185 1.0 2.0 0.00 0.00 0.00 57 1017.8
20260502052014 56 197 1.0 2.0 0.00 0.00 0.00 57 1017.9
20260502051659 55 203 1.0 3.0 0.00 0.00 0.00 56 1017.7
20260502051615 56 190 1.0 2.0 0.00 0.00 0.00 56 1017.8
20260502051512 56 203 0.0 2.0 0.00 0.00 0.00 56 1017.8
20260502051014 55 200 1.0 3.0 0.00 0.00 0.00 56 1017.7
20260502050544 55 203 1.0 4.0 0.00 0.00 0.00 56 1017.7
20260502050513 55 201 1.0 4.0 0.00 0.00 0.00 56 1017.7
20260502050052 55 167 2.0 6.0 0.00 0.00 0.00 56 1017.6
20260502050034 55 196 2.0 6.0 0.00 0.00 0.00 56 1017.6
20260502045537 55 204 1.0 6.0 0.00 0.00 0.00 56 1017.7
20260502045512 55 190 1.0 6.0 0.00 0.00 0.00 56 1017.7
20260502045047 55 180 2.0 7.0 0.00 0.00 0.00 56 1017.7
20260502045014 55 186 2.0 7.0 0.00 0.00 0.00 56 1017.8
20260502044543 54 217 2.0 7.0 0.00 0.00 0.00 56 1017.8
20260502044513 54 191 2.0 7.0 0.00 0.00 0.00 56 1017.8
20260502044034 54 186 1.0 4.0 0.00 0.00 0.00 56 1017.7
20260502044013 54 199 1.0 4.0 0.00 0.00 0.00 56 1017.8
20260502043539 54 196 2.0 4.0 0.00 0.00 0.00 56 1017.7
20260502043534 54 191 2.0 4.0 0.00 0.00 0.00 56 1017.7
20260502043039 54 192 2.0 5.0 0.00 0.00 0.00 56 1017.7
20260502043014 54 180 2.0 5.0 0.00 0.00 0.00 56 1017.7
20260502042535 54 173 2.0 5.0 0.00 0.00 0.00 56 1017.6
20260502042513 54 172 2.0 5.0 0.00 0.00 0.00 56 1017.6
20260502042039 53 164 1.0 5.0 0.00 0.00 0.00 57 1017.5
20260502042014 53 178 1.0 5.0 0.00 0.00 0.00 57 1017.6
20260502041539 53 179 2.0 4.0 0.00 0.00 0.00 57 1017.5
20260502041513 53 181 2.0 4.0 0.00 0.00 0.00 57 1017.6
20260502041116 53 159 0.0 2.0 0.00 0.00 0.00 58 1017.8
20260502041047 53 176 1.0 4.0 0.00 0.00 0.00 57 1017.6
20260502041013 53 178 1.0 4.0 0.00 0.00 0.00 58 1017.6
20260502040750 53 155 0.0 4.0 0.00 0.00 0.00 58 1017.6
20260502040513 53 172 0.0 4.0 0.00 0.00 0.00 58 1017.6
20260502040121 53 175 0.0 4.0 0.00 0.00 0.00 58 1017.5
20260502040013 53 165 0.0 4.0 0.00 0.00 0.00 58 1017.6
20260502035543 53 159 0.0 2.0 0.00 0.00 0.00 58 1017.7
20260502035513 53 157 0.0 2.0 0.00 0.00 0.00 58 1017.7
20260502035013 53 154 0.0 2.0 0.00 0.00 0.00 58 1017.8
20260502034529 53 142 0.0 1.0 0.00 0.00 0.00 58 1017.7
20260502034513 53 142 0.0 1.0 0.00 0.00 0.00 58 1017.7
20260502034021 53 142 0.0 2.0 0.00 0.00 0.00 58 1017.8
20260502034013 53 151 0.0 2.0 0.00 0.00 0.00 58 1017.8
20260502033530 53 142 0.0 2.0 0.00 0.00 0.00 58 1017.7
20260502033513 53 170 0.0 2.0 0.00 0.00 0.00 58 1017.8
20260502033041 53 184 0.0 1.0 0.00 0.00 0.00 58 1017.8
20260502033013 53 184 0.0 1.0 0.00 0.00 0.00 58 1017.8
20260502032521 53 184 0.0 1.0 0.00 0.00 0.00 58 1017.8
20260502032512 53 184 0.0 1.0 0.00 0.00 0.00 58 1017.8
20260502032018 53 184 0.0 1.0 0.00 0.00 0.00 58 1017.9
20260502032013 53 184 0.0 1.0 0.00 0.00 0.00 58 1017.9
20260502031522 53 184 0.0 0.0 0.00 0.00 0.00 58 1017.9
20260502031512 54 0 0.0 0.0 0.00 0.00 0.00 58 1018.0
20260502031013 54 0 0.0 0.0 0.00 0.00 0.00 57 1018.0
20260502030516 54 184 0.0 0.0 0.00 0.00 0.00 57 1017.9
20260502030514 54 0 0.0 0.0 0.00 0.00 0.00 57 1017.9
20260502030026 54 184 0.0 1.0 0.00 0.00 0.00 57 1018.0
20260502030013 54 185 0.0 1.0 0.00 0.00 0.00 57 1018.1
20260502025623 54 193 1.0 3.0 0.00 0.00 0.00 56 1018.2
20260502025522 54 184 0.0 3.0 0.00 0.00 0.00 56 1018.0
20260502025513 54 190 0.0 2.0 0.00 0.00 0.00 56 1018.1
20260502025034 54 180 1.0 3.0 0.00 0.00 0.00 56 1018.2
20260502024513 54 177 1.0 3.0 0.00 0.00 0.00 56 1018.2
20260502024503 54 186 1.0 3.0 0.00 0.00 0.00 56 1018.1
20260502024013 54 171 1.0 3.0 0.00 0.00 0.00 56 1018.2
20260502024005 54 192 1.0 3.0 0.00 0.00 0.00 56 1018.1
20260502023534 54 161 1.0 4.0 0.00 0.00 0.00 56 1018.2
20260502023502 54 155 1.0 4.0 0.00 0.00 0.00 56 1018.1
20260502023013 54 165 0.0 4.0 0.00 0.00 0.00 57 1018.3
20260502023008 54 172 0.0 4.0 0.00 0.00 0.00 57 1018.2
20260502022514 54 173 0.0 4.0 0.00 0.00 0.00 58 1018.2
20260502022502 54 160 0.0 4.0 0.00 0.00 0.00 58 1018.2
20260502022019 54 155 0.0 1.0 0.00 0.00 0.00 58 1018.1
20260502022013 54 155 0.0 1.0 0.00 0.00 0.00 58 1018.2
20260502021512 54 0 0.0 1.0 0.00 0.00 0.00 57 1018.3
20260502021501 54 155 0.0 0.0 0.00 0.00 0.00 57 1018.2
20260502021013 54 155 0.0 2.0 0.00 0.00 0.00 57 1018.4
20260502021001 54 155 0.0 2.0 0.00 0.00 0.00 57 1018.4
20260502020534 54 155 0.0 2.0 0.00 0.00 0.00 56 1018.4
20260502020449 54 155 0.0 2.0 0.00 0.00 0.00 56 1018.4
20260502020013 54 155 0.0 2.0 0.00 0.00 0.00 56 1018.5
20260502015942 54 155 0.0 2.0 0.00 0.00 0.00 56 1018.4
20260502015513 55 154 0.0 2.0 0.00 0.00 0.00 56 1018.6
20260502015444 55 155 0.0 2.0 0.00 0.00 0.00 56 1018.4
20260502015034 55 142 0.0 2.0 0.00 0.00 0.00 55 1018.6
20260502014934 55 155 0.0 2.0 0.00 0.00 0.00 56 1018.5
20260502014534 55 132 0.0 3.0 0.00 0.00 0.00 56 1018.6
20260502014430 55 146 0.0 3.0 0.00 0.00 0.00 56 1018.6
20260502014013 55 150 0.0 3.0 0.00 0.00 0.00 55 1018.6
20260502014002 55 121 0.0 2.0 0.00 0.00 0.00 55 1018.6
20260502013932 55 121 0.0 3.0 0.00 0.00 0.00 55 1018.5
20260502013513 55 162 0.0 2.0 0.00 0.00 0.00 55 1018.6
20260502013013 55 171 0.0 3.0 0.00 0.00 0.00 55 1018.7
20260502012922 55 192 0.0 3.0 0.00 0.00 0.00 55 1018.6
20260502012513 55 171 0.0 3.0 0.00 0.00 0.00 55 1018.7
20260502012425 55 195 0.0 3.0 0.00 0.00 0.00 55 1018.7
20260502012028 56 128 0.0 3.0 0.00 0.00 0.00 54 1018.7
20260502012012 55 158 0.0 3.0 0.00 0.00 0.00 55 1018.8
20260502011940 55 182 0.0 3.0 0.00 0.00 0.00 55 1018.7
20260502011534 55 171 0.0 3.0 0.00 0.00 0.00 54 1018.9
20260502011139 56 198 1.0 3.0 0.00 0.00 0.00 54 1018.7
20260502011013 56 194 1.0 3.0 0.00 0.00 0.00 54 1018.8
20260502010925 56 198 1.0 3.0 0.00 0.00 0.00 54 1018.7
20260502010512 56 191 1.0 3.0 0.00 0.00 0.00 54 1018.8
20260502010422 56 191 1.0 3.0 0.00 0.00 0.00 54 1018.9
20260502010014 56 186 0.0 3.0 0.00 0.00 0.00 54 1018.8
20260502005917 56 187 0.0 3.0 0.00 0.00 0.00 54 1018.8
20260502005512 56 185 0.0 3.0 0.00 0.00 0.00 53 1018.8
20260502005441 56 183 1.0 5.0 0.00 0.00 0.00 53 1018.9
20260502005422 56 183 0.0 5.0 0.00 0.00 0.00 53 1018.8
20260502005013 56 181 1.0 5.0 0.00 0.00 0.00 53 1018.9